Meteo pe oră la Dzierzazno

Astăzi, 27 Iulie, Marţi

Timp Temperatura Precipitaţii Vânt Presiune Umiditate
00:00 +20°C° 0 mm 2 m/s 749 mmHg 82%
01:00 +20°C° 0 mm 3 m/s 750 mmHg 83%
02:00 +19°C° 0.1 mm 3 m/s 750 mmHg 86%
03:00 +19°C° 0.1 mm 3 m/s 750 mmHg 89%
04:00 +19°C° 0.1 mm 2 m/s 750 mmHg 92%
05:00 +20°C° 0.2 mm 3 m/s 750 mmHg 87%
06:00 +21°C° 0.2 mm 3 m/s 750 mmHg 83%
07:00 +22°C° 0.2 mm 3 m/s 750 mmHg 78%
08:00 +24°C° 0 mm 3 m/s 750 mmHg 71%
09:00 +26°C° 0 mm 3 m/s 750 mmHg 64%
10:00 +27°C° 0 mm 4 m/s 750 mmHg 56%
11:00 +28°C° 0 mm 4 m/s 750 mmHg 53%
12:00 +29°C° 0 mm 4 m/s 750 mmHg 49%
13:00 +30°C° 0 mm 5 m/s 750 mmHg 46%
14:00 +30°C° 0 mm 5 m/s 750 mmHg 44%
15:00 +30°C° 0 mm 5 m/s 750 mmHg 42%
16:00 +30°C° 0 mm 5 m/s 750 mmHg 40%
17:00 +29°C° 0 mm 4 m/s 750 mmHg 46%
18:00 +27°C° 0 mm 3 m/s 750 mmHg 52%
19:00 +26°C° 0 mm 3 m/s 750 mmHg 58%
20:00 +25°C° 0 mm 3 m/s 750 mmHg 58%
21:00 +24°C° 0 mm 2 m/s 750 mmHg 59%
22:00 +23°C° 0 mm 2 m/s 751 mmHg 59%
23:00 +23°C° 0 mm 2 m/s 751 mmHg 60%

Mâine, 28 Iulie, Miercuri

Timp Temperatura Precipitaţii Vânt Presiune Umiditate
00:00 +22°C° 0 mm 1 m/s 751 mmHg 61%
01:00 +22°C° 0 mm 1 m/s 750 mmHg 62%
02:00 +21°C° 0 mm 1 m/s 750 mmHg 64%
03:00 +21°C° 0 mm 1 m/s 750 mmHg 67%
04:00 +20°C° 0 mm 1 m/s 750 mmHg 69%
05:00 +22°C° 0 mm 1 m/s 750 mmHg 66%
06:00 +23°C° 0 mm 1 m/s 750 mmHg 64%
07:00 +24°C° 0 mm 1 m/s 750 mmHg 61%
08:00 +25°C° 0 mm 1 m/s 750 mmHg 58%
09:00 +27°C° 0 mm 2 m/s 750 mmHg 55%
10:00 +28°C° 0 mm 2 m/s 750 mmHg 52%
11:00 +26°C° 0.3 mm 2 m/s 750 mmHg 61%
12:00 +25°C° 0.3 mm 2 m/s 750 mmHg 69%
13:00 +23°C° 0.3 mm 1 m/s 750 mmHg 78%
14:00 +24°C° 0.2 mm 2 m/s 750 mmHg 72%
15:00 +25°C° 0.2 mm 2 m/s 750 mmHg 67%
16:00 +26°C° 0.2 mm 2 m/s 750 mmHg 61%
17:00 +25°C° 0.3 mm 2 m/s 750 mmHg 67%
18:00 +24°C° 0.3 mm 2 m/s 750 mmHg 72%
19:00 +23°C° 0.3 mm 2 m/s 750 mmHg 78%
20:00 +21°C° 0 mm 2 m/s 750 mmHg 81%
21:00 +20°C° 0 mm 2 m/s 750 mmHg 84%
22:00 +20°C° 0 mm 2 m/s 750 mmHg 87%
23:00 +19°C° 0 mm 2 m/s 750 mmHg 88%

Poimâine, 29 Iulie, Joi

Timp Temperatura Precipitaţii Vânt Presiune Umiditate
00:00 +18°C° 0 mm 2 m/s 750 mmHg 88%
01:00 +18°C° 0 mm 3 m/s 750 mmHg 89%
02:00 +17°C° 0 mm 3 m/s 750 mmHg 90%
03:00 +17°C° 0 mm 3 m/s 750 mmHg 91%
04:00 +17°C° 0 mm 3 m/s 750 mmHg 92%
05:00 +18°C° 0 mm 3 m/s 750 mmHg 86%
06:00 +19°C° 0 mm 4 m/s 750 mmHg 81%
07:00 +21°C° 0 mm 4 m/s 750 mmHg 76%
08:00 +22°C° 0 mm 4 m/s 750 mmHg 68%
09:00 +25°C° 0 mm 5 m/s 750 mmHg 61%
10:00 +26°C° 0 mm 5 m/s 750 mmHg 53%
11:00 +26°C° 0 mm 6 m/s 750 mmHg 50%
12:00 +27°C° 0 mm 6 m/s 750 mmHg 47%
13:00 +27°C° 0 mm 6 m/s 750 mmHg 44%
14:00 +27°C° 0 mm 6 m/s 749 mmHg 42%
15:00 +28°C° 0 mm 6 m/s 749 mmHg 41%
16:00 +28°C° 0 mm 5 m/s 749 mmHg 39%
17:00 +27°C° 0 mm 4 m/s 749 mmHg 44%
18:00 +25°C° 0 mm 4 m/s 749 mmHg 50%
19:00 +24°C° 0 mm 3 m/s 749 mmHg 55%
20:00 +23°C° 0 mm 2 m/s 749 mmHg 55%
21:00 +23°C° 0 mm 2 m/s 749 mmHg 55%
22:00 +22°C° 0 mm 1 m/s 749 mmHg 55%
23:00 +22°C° 0 mm 1 m/s 749 mmHg 56%

30 Iulie, Vineri

Timp Temperatura Precipitaţii Vânt Presiune Umiditate
00:00 +21°C° 0 mm 1 m/s 748 mmHg 57%
01:00 +20°C° 0 mm 2 m/s 748 mmHg 59%
02:00 +19°C° 0 mm 2 m/s 748 mmHg 61%
03:00 +19°C° 0 mm 2 m/s 748 mmHg 64%
04:00 +18°C° 0 mm 3 m/s 748 mmHg 66%
05:00 +19°C° 0 mm 3 m/s 748 mmHg 66%
06:00 +20°C° 0 mm 4 m/s 748 mmHg 67%
07:00 +20°C° 0 mm 4 m/s 748 mmHg 67%
08:00 +22°C° 0 mm 4 m/s 748 mmHg 60%
09:00 +23°C° 0 mm 4 m/s 748 mmHg 53%
10:00 +25°C° 0 mm 4 m/s 748 mmHg 46%
11:00 +25°C° 0 mm 5 m/s 748 mmHg 44%
12:00 +26°C° 0 mm 5 m/s 747 mmHg 42%
13:00 +26°C° 0 mm 6 m/s 747 mmHg 40%
14:00 +26°C° 0 mm 6 m/s 747 mmHg 37%
15:00 +26°C° 0 mm 6 m/s 747 mmHg 35%
16:00 +26°C° 0 mm 6 m/s 747 mmHg 33%
17:00 +24°C° 0 mm 6 m/s 747 mmHg 38%
18:00 +22°C° 0 mm 5 m/s 747 mmHg 43%
19:00 +21°C° 0 mm 4 m/s 747 mmHg 48%
20:00 +20°C° 0 mm 4 m/s 747 mmHg 51%
21:00 +19°C° 0 mm 3 m/s 747 mmHg 55%
22:00 +18°C° 0 mm 3 m/s 748 mmHg 58%
23:00 +17°C° 0 mm 3 m/s 748 mmHg 62%

31 Iulie, Sâmbătă

Timp Temperatura Precipitaţii Vânt Presiune Umiditate
00:00 +17°C° 0 mm 3 m/s 748 mmHg 67%
01:00 +16°C° 0 mm 3 m/s 748 mmHg 71%
02:00 +16°C° 0 mm 3 m/s 748 mmHg 73%
03:00 +14°C° 0 mm 3 m/s 748 mmHg 76%
04:00 +14°C° 0 mm 3 m/s 748 mmHg 78%
05:00 +15°C° 0 mm 4 m/s 748 mmHg 75%
06:00 +17°C° 0 mm 4 m/s 748 mmHg 72%
07:00 +19°C° 0 mm 5 m/s 748 mmHg 69%
08:00 +20°C° 0 mm 5 m/s 748 mmHg 62%
09:00 +22°C° 0 mm 6 m/s 748 mmHg 56%
10:00 +23°C° 0 mm 6 m/s 748 mmHg 50%
11:00 +24°C° 0 mm 6 m/s 748 mmHg 47%
12:00 +26°C° 0 mm 6 m/s 748 mmHg 43%
13:00 +26°C° 0 mm 6 m/s 748 mmHg 39%
14:00 +27°C° 0 mm 6 m/s 748 mmHg 38%
15:00 +27°C° 0 mm 6 m/s 747 mmHg 37%
16:00 +27°C° 0 mm 6 m/s 747 mmHg 36%
17:00 +26°C° 0 mm 5 m/s 747 mmHg 41%
18:00 +24°C° 0 mm 3 m/s 747 mmHg 46%
19:00 +23°C° 0 mm 2 m/s 747 mmHg 51%
20:00 +21°C° 0 mm 2 m/s 747 mmHg 54%
21:00 +19°C° 0 mm 2 m/s 747 mmHg 56%
22:00 +18°C° 0 mm 2 m/s 747 mmHg 59%
23:00 +18°C° 0 mm 2 m/s 747 mmHg 62%

1 August, Duminică

Timp Temperatura Precipitaţii Vânt Presiune Umiditate
00:00 +18°C° 0 mm 1 m/s 747 mmHg 65%
01:00 +18°C° 0 mm 1 m/s 747 mmHg 68%
02:00 +18°C° 0 mm 1 m/s 747 mmHg 68%
03:00 +17°C° 0 mm 2 m/s 747 mmHg 67%
04:00 +17°C° 0 mm 2 m/s 747 mmHg 67%
05:00 +18°C° 0 mm 2 m/s 746 mmHg 65%
06:00 +19°C° 0 mm 2 m/s 746 mmHg 63%
07:00 +20°C° 0 mm 3 m/s 746 mmHg 61%
08:00 +20°C° 0.4 mm 3 m/s 746 mmHg 65%
09:00 +19°C° 0.4 mm 2 m/s 746 mmHg 69%
10:00 +19°C° 0.4 mm 2 m/s 746 mmHg 72%
11:00 +18°C° 4 mm 2 m/s 746 mmHg 79%
12:00 +18°C° 4 mm 3 m/s 745 mmHg 85%
13:00 +17°C° 4 mm 3 m/s 745 mmHg 91%
14:00 +17°C° 0.7 mm 4 m/s 745 mmHg 91%
15:00 +17°C° 0.7 mm 4 m/s 745 mmHg 90%
16:00 +17°C° 0.7 mm 4 m/s 745 mmHg 89%
17:00 +15°C° 0.1 mm 4 m/s 745 mmHg 90%
18:00 +15°C° 0.1 mm 4 m/s 745 mmHg 91%
19:00 +15°C° 0.1 mm 4 m/s 745 mmHg 92%
20:00 +16°C° 0 mm 3 m/s 745 mmHg 92%
21:00 +16°C° 0 mm 3 m/s 745 mmHg 92%
22:00 +16°C° 0 mm 2 m/s 745 mmHg 92%
23:00 +16°C° 0.2 mm 2 m/s 745 mmHg 93%
Arată mai mult

Formular de consimțământ

Meteoprog și furnizorii noștri de servicii pot stoca și accesa date personale, precum cookies, identificatori de dispozitiv sau alte tehnologii similare pe dispozitivul dumneavoastră și procesa astfel de date pentru a personaliza conținutul și reclamele, dar și pentru a oferi caracteristici de social media și pentru a analiza traficul.

  • Stocarea și/sau accesarea informațiilor pe dispozitivul dumneavoastră

    Cookies, identificatori de dispozitiv sau alte informații pot fi stocate sau accesate pe dispozitiv în scopurile indicate mai sus.

  • Reclame și conținut personalizat, evaluarea reclamelor și a conținutului, informații despre audiențe și dezvoltarea produselor

    Reclamele și conținutul pot fi personalizate pe baza unui profil. Pot fi adăugate date suplimentare pentru a personaliza mai bine reclamele și conținutul. Performanța reclamelor și conținutului poate fi măsurată. Pot fi obținute informații despre utilizatorii care au văzut reclamele și conținutul. Aceste date pot fi utilizate pentru a dezvolta sau îmbunătăți experiența utilizatorilor, sistemele și software-ul.

Dând clic pe ‘Sunt de acord’, permiteți utilizarea cookie-urilor menționate, a identificatorilor de dispozitiv, balizelor web sau altor tehnologii similare. Setările pot fi modificate din browser-ul dispozitivului dumneavoastră.

În anumite scopuri, interesele legitime pot prima asupra consimțământului. Puteți citi mai multe informații în acest sens în Politica privind Confidențialitatea Datelor și Cookie.